User: anonymous   Login
Location: Brno
(49.2000°N, 16.6330°E)
Time: 23:19:37
(UTC+02:00)
Language:

Cosmos 1603 - Orbit

View from above orbital plane
View from above orbital plane
View from above satellite
View from above satellite

Ground track
Ground track

The orbit data is extracted from the following two-line orbital elements,

1 15333U 84106A   14296.56548052  .00000365  00000-0  21674-3 0  1136
2 15333 071.0270 318.4023 0021438 243.2370 269.8669 14.13952500551483
Epoch (UTC): 23 October 2014 13:34:17
Eccentricity: 0.0021438
inclination: 71.0270°
perigee height: 830 km
apogee height: 861 km
right ascension of ascending node: 318.4023°
argument of perigee: 243.2370°
revolutions per day: 14.13952500
mean anomaly at epoch: 269.8669°
orbit number at epoch: 55148

The dashed part of the orbit path shows where the satellite is in the earth's shadow,  

DLR